Minneapolis, MN

10:59 PM CDT on July 21, 2017 (GMT -0500)
Minneapolis-Saint Paul International

Weather History for KMSP - September, 2012

Change the Weather History Date:

Friday, September 21, 2012

  Actual Average Record
Temperature  
Mean Temperature 52 °F 60 °F  
Max Temperature 63 °F 70 °F 94 °F (1937)
Min Temperature 40 °F 50 °F 32 °F (1974)
Degree Days  
Heating Degree Days 13 7  
Month to date heating degree days 48 79  
Since 1 July heating degree days 52 98  
Cooling Degree Days 0 1  
Month to date cooling degree days 94 58  
Year to date cooling degree days 1129 739  
Growing Degree Days 4 (Base 50)    
Moisture  
Dew Point 39 °F    
Average Humidity 58    
Maximum Humidity 77    
Minimum Humidity 39    
Precipitation  
Precipitation T in 0.10 in 2.07 in (1986)
Month to date precipitation 0.30 2.18  
Year to date precipitation 26.02 24.35  
Snow  
Snow 0.00 in 0.00 in T in (2010)
Month to date snowfall 0.0 0.0  
Since 1 July snowfall T 0.0  
Since 1 September snowfall 0.0 0.0  
Snow Depth 0.00 in    
Sea Level Pressure  
Sea Level Pressure 29.85 in    
Wind  
Wind Speed 9 mph (WNW)    
Max Wind Speed 37 mph    
Max Gust Speed 48 mph    
Visibility 10 miles    
Events Rain    
T = Trace of Precipitation, MM = Missing Value Source: NWS Daily Summary

Daily Weather History Graph

Daily Weather History Graph

Search for Another Location

Airport or City:

Trip Planner

Search our weather history database for the weather conditions in past years. The results will help you decide how hot, cold, wet, or windy it might be!

Date:

Astronomy

Sep. 21, 2012 Rise Set
Actual Time 6:59 AM CDT 7:11 PM CDT
Civil Twilight 6:30 AM CDT 7:40 PM CDT
Nautical Twilight 5:55 AM CDT 8:14 PM CDT
Astronomical Twilight 5:20 AM CDT 8:49 PM CDT
Moon 1:37 PM CDT (9/21) 10:56 PM CDT (9/21)
Length of Visible Light 13h 10m
Length of Day
12h 11m
Waxing Crescent, 37% of the Moon is Illuminated
Sep 21
Waxing Crescent
Sep 22
First Quarter
Sep 29
Full
Oct 8
Last Quarter
Oct 15
New

Hourly Weather History & Observations

Time (CDT) Temp. Windchill Dew Point Humidity Pressure Visibility Wind Dir Wind Speed Gust Speed Precip Events Conditions
12:53 AM 57.0 °F - 35.1 °F 44% 29.85 in 10.0 mi West 6.9 mph - N/A   Overcast
1:53 AM 53.1 °F - 41.0 °F 64% 29.88 in 10.0 mi North 11.5 mph - N/A   Overcast
2:53 AM 51.1 °F - 42.1 °F 71% 29.88 in 10.0 mi North 10.4 mph - N/A   Overcast
3:53 AM 51.1 °F - 41.0 °F 68% 29.87 in 10.0 mi SW 4.6 mph - N/A   Overcast
4:53 AM 51.1 °F - 42.1 °F 71% 29.86 in 10.0 mi Calm Calm - N/A   Overcast
5:53 AM 52.0 °F - 42.1 °F 69% 29.86 in 10.0 mi SSW 5.8 mph - N/A   Overcast
6:53 AM 51.1 °F - 44.1 °F 77% 29.86 in 10.0 mi South 4.6 mph - 0.00 in   Overcast
7:53 AM 51.1 °F - 43.0 °F 74% 29.84 in 10.0 mi Calm Calm - N/A   Mostly Cloudy
8:53 AM 52.0 °F - 44.1 °F 74% 29.86 in 10.0 mi WSW 3.5 mph - N/A   Overcast
9:53 AM 52.0 °F - 44.1 °F 74% 29.86 in 10.0 mi NNW 5.8 mph - 0.00 in Rain Light Rain
10:53 AM 54.0 °F - 44.1 °F 69% 29.86 in 10.0 mi NNW 6.9 mph - 0.00 in Rain Light Rain
11:53 AM 57.0 °F - 41.0 °F 55% 29.86 in 10.0 mi WNW 12.7 mph 17.3 mph 0.00 in   Mostly Cloudy
12:53 PM 59.0 °F - 39.0 °F 48% 29.86 in 10.0 mi NW 10.4 mph - N/A   Mostly Cloudy
1:53 PM 60.1 °F - 39.0 °F 46% 29.84 in 10.0 mi WNW 11.5 mph - N/A   Scattered Clouds
2:53 PM 60.1 °F - 37.9 °F 44% 29.83 in 10.0 mi WNW 11.5 mph - N/A   Mostly Cloudy
3:53 PM 54.0 °F - 39.9 °F 59% 29.83 in 7.0 mi WNW 9.2 mph 24.2 mph 0.00 in Rain Light Rain
4:53 PM 62.1 °F - 39.0 °F 43% 29.82 in 10.0 mi NW 11.5 mph - 0.00 in   Scattered Clouds
5:53 PM 60.1 °F - 36.0 °F 41% 29.82 in 10.0 mi WNW 9.2 mph 18.4 mph N/A   Partly Cloudy
6:53 PM 57.9 °F - 35.1 °F 42% 29.82 in 10.0 mi WNW 6.9 mph - N/A   Partly Cloudy
7:53 PM 55.9 °F - 35.1 °F 45% 29.82 in 10.0 mi WSW 4.6 mph - N/A   Partly Cloudy
8:53 PM 54.0 °F - 35.1 °F 49% 29.81 in 10.0 mi SW 5.8 mph - N/A   Partly Cloudy
9:43 PM 53.6 °F - 37.4 °F 54% 29.82 in 10.0 mi NNW 19.6 mph 24.2 mph 0.00 in Rain Light Rain
9:53 PM 51.1 °F - 39.0 °F 63% 29.82 in 8.0 mi NNW 12.7 mph 20.7 mph 0.00 in Rain Light Rain
10:38 PM 48.2 °F - 37.4 °F 66% 29.86 in 10.0 mi NNW 27.6 mph 44.9 mph 0.00 in   Mostly Cloudy
10:48 PM 46.4 °F 37.7 °F 35.6 °F 66% 29.87 in 10.0 mi NNW 26.5 mph 35.7 mph 0.00 in   Mostly Cloudy
10:53 PM 46.0 °F 37.4 °F 34.0 °F 63% 29.88 in 10.0 mi NW 25.3 mph 38.0 mph 0.00 in   Overcast
11:53 PM 43.0 °F 34.0 °F 34.0 °F 71% 29.89 in 10.0 mi NW 21.9 mph 28.8 mph 0.00 in   Scattered Clouds